Tracking 21092 objects as of 14-Aug-2020
HD Live streaming from Space Station
objects crossing your sky now
Track the most recent launched group of Starlink satellites

ERS 1 DEB

Track ERS 1 DEB now!
10-day predictions


NORAD ID: 35262
Int'l Code: 1991-050R
Perigee: 712.5 km
Apogee: 742.6 km
Inclination: 98.3 °
Period: 99.2 minutes
Semi major axis: 7098 km
RCS: 0.0171 m2 (small)
Launch date: July 17, 1991
Source: European Space Agency (ESA)
Launch site: FRENCH GUIANA (FRGUI)

Note: This is SATELLITE DEBRIS
aabbcc
Your satellite tracking list
Your tracking list is empty




NASA's NSSDC Master Catalog

Two Line Element Set (TLE):
1 35262U 91050R   20226.89269567 +.00000296 +00000-0 +84832-4 0  9993
2 35262 098.3142 194.6109 0021202 150.0269 263.6862 14.51603333528172
Source of the keplerian elements: AFSPC